Miles City, MT

1:08 PM MDT on May 21, 2018 (GMT -0600)
Wiley

Weather History for KMLS - October, 2014

Change the Weather History Date:

Saturday, October 11, 2014

  Actual Average Record
Temperature  
Mean Temperature 59 °F 49 °F  
Max Temperature 75 °F 62 °F 89 °F (1995)
Min Temperature 43 °F 36 °F 18 °F (1959)
Degree Days  
Heating Degree Days 6 16  
Month to date heating degree days 138 159  
Since 1 July heating degree days 364 395  
Cooling Degree Days 0 0  
Month to date cooling degree days 0 0  
Year to date cooling degree days 648 728  
Growing Degree Days 9 (Base 50)    
Moisture  
Dew Point 39 °F    
Average Humidity 55    
Maximum Humidity 89    
Minimum Humidity 21    
Precipitation  
Precipitation 0.06 in 0.04 in 0.23 in (2008)
Month to date precipitation 0.09 0.39  
Year to date precipitation 12.37 11.23  
Sea Level Pressure  
Sea Level Pressure 29.75 in    
Wind  
Wind Speed 9 mph (SW)    
Max Wind Speed 30 mph    
Max Gust Speed 35 mph    
Visibility 10 miles    
Events      
T = Trace of Precipitation, MM = Missing Value Source: NWS Daily Summary

Daily Weather History Graph

Daily Weather History Graph

Search for Another Location

Airport or City:

Astronomy

Oct. 11, 2014 Rise Set
Actual Time 7:15 AM MDT 6:24 PM MDT
Civil Twilight 6:45 AM MDT 6:54 PM MDT
Nautical Twilight 6:10 AM MDT 7:29 PM MDT
Astronomical Twilight 5:35 AM MDT 8:04 PM MDT
Moon 8:43 PM MDT (10/11) 10:52 AM MDT (10/11)
Length of Visible Light 12h 09m
Length of Day
11h 08m
Waning Gibbous, 87% of the Moon is Illuminated
Oct 11
Waning Gibbous
Oct 15
Last Quarter
Oct 23
New
Oct 30
First Quarter
Nov 6
Full

Hourly Weather History & Observations

Time (MDT) Temp. Windchill Dew Point Humidity Pressure Visibility Wind Dir Wind Speed Gust Speed Precip Events Conditions
12:53 AM 51.1 °F - 43.0 °F 74% 29.90 in 10.0 mi SSE 10.4 mph - N/A   Clear
1:53 AM 48.0 °F - 42.1 °F 80% 29.88 in 10.0 mi SSE 10.4 mph - N/A   Clear
2:53 AM 46.0 °F 41.0 °F 41.0 °F 83% 29.87 in 10.0 mi SSE 10.4 mph - N/A   Clear
3:53 AM 45.0 °F 39.7 °F 41.0 °F 86% 29.85 in 10.0 mi SSE 10.4 mph - N/A   Clear
4:53 AM 44.1 °F 39.0 °F 39.9 °F 85% 29.85 in 10.0 mi SSE 9.2 mph - N/A   Clear
5:53 AM 44.1 °F 39.0 °F 39.9 °F 85% 29.85 in 10.0 mi SSE 9.2 mph - N/A   Clear
6:53 AM 43.0 °F 37.2 °F 39.9 °F 89% 29.85 in 10.0 mi SSE 10.4 mph - N/A   Clear
7:53 AM 44.1 °F 39.5 °F 41.0 °F 89% 29.85 in 10.0 mi SSE 8.1 mph - N/A   Clear
8:53 AM 46.9 °F - 42.1 °F 83% 29.84 in 10.0 mi SSE 10.4 mph - N/A   Clear
9:53 AM 54.0 °F - 44.1 °F 69% 29.83 in 10.0 mi South 6.9 mph - N/A   Clear
10:53 AM 63.0 °F - 44.1 °F 50% 29.81 in 10.0 mi SW 9.2 mph - N/A   Clear
11:53 AM 68.0 °F - 42.1 °F 39% 29.78 in 10.0 mi WSW 8.1 mph - N/A   Clear
12:53 PM 71.1 °F - 39.0 °F 31% 29.74 in 10.0 mi WNW 8.1 mph - N/A   Clear
1:53 PM 73.9 °F - 33.1 °F 22% 29.72 in 10.0 mi WNW 11.5 mph - N/A   Clear
2:53 PM 75.0 °F - 33.1 °F 22% 29.70 in 10.0 mi West 15.0 mph - N/A   Clear
3:53 PM 73.0 °F - 35.1 °F 25% 29.67 in 10.0 mi West 8.1 mph - N/A   Clear
4:53 PM 70.0 °F - 36.0 °F 29% 29.65 in 10.0 mi SSW 5.8 mph - N/A   Clear
5:53 PM 66.9 °F - 35.1 °F 31% 29.65 in 9.0 mi SW 6.9 mph - N/A   Mostly Cloudy
6:53 PM 64.9 °F - 33.1 °F 31% 29.65 in 10.0 mi WNW 6.9 mph - N/A   Scattered Clouds
7:53 PM 63.0 °F - 33.1 °F 33% 29.64 in 10.0 mi WNW 5.8 mph - N/A   Clear
8:53 PM 60.1 °F - 35.1 °F 39% 29.64 in 10.0 mi West 11.5 mph - N/A   Overcast
9:53 PM 60.1 °F - 43.0 °F 53% 29.62 in 10.0 mi NW 5.8 mph - 0.00 in   Overcast
10:53 PM 57.0 °F - 42.1 °F 57% 29.60 in 10.0 mi NW 6.9 mph - N/A   Partly Cloudy
11:53 PM 55.9 °F - 39.9 °F 55% 29.60 in 10.0 mi West 4.6 mph - N/A   Mostly Cloudy